Lynchburg, VA

7:31 PM EDT on October 21, 2019 (GMT -0400)
Lynchburg Regional-Glenn

Weather History for KLYH - August, 2019

Change the Weather History Date:

Saturday, August 3, 2019

  Actual Average Record
Temperature  
Mean Temperature 77 °F 75 °F  
Max Temperature 88 °F 86 °F 100 °F (1935)
Min Temperature 65 °F 64 °F 52 °F (1998)
Degree Days  
Heating Degree Days 0 0  
Month to date heating degree days 0 0  
Since 1 June heating degree days 2 15  
Since 1 July heating degree days 0 1  
Cooling Degree Days 12 10  
Month to date cooling degree days 34 30  
Year to date cooling degree days 889 644  
Since 1 June cooling degree days 677 562  
Growing Degree Days 25 (Base 50)    
Moisture  
Dew Point 68 °F    
Average Humidity 76    
Maximum Humidity 100    
Minimum Humidity 51    
Precipitation  
Precipitation 0.00 in 0.11 in 1.19 in (1939)
Month to date precipitation 2.10 0.35  
Year to date precipitation 26.44 25.02  
Snow  
Snow 0.00 in - - ()
Month to date snowfall 0.0  
Since 1 June snowfall 0.0  
Since 1 July snowfall 0.0  
Snow Depth 0.00 in    
Sea Level Pressure  
Sea Level Pressure 30.03 in    
Wind  
Wind Speed 1 mph (SSE)    
Max Wind Speed 8 mph    
Max Gust Speed 11 mph    
Visibility 6 miles    
Events Fog    
T = Trace of Precipitation, MM = Missing Value Source: NWS Daily Summary

Daily Weather History Graph

Daily Weather History Graph

Search for Another Location

Airport or City:

Astronomy

Aug. 03, 2019 Rise Set
Actual Time 6:22 AM EDT 8:22 PM EDT
Civil Twilight 5:54 AM EDT 8:51 PM EDT
Nautical Twilight 5:19 AM EDT 9:26 PM EDT
Astronomical Twilight 4:41 AM EDT 10:03 PM EDT
Moon 9:10 AM EDT (8/3) 10:30 PM EDT (8/3)
Length of Visible Light 14h 57m
Length of Day
13h 59m
Waxing Crescent, 10% of the Moon is Illuminated
Aug 3
Waxing Crescent
Aug 7
First Quarter
Aug 15
Full
Aug 23
Last Quarter
Aug 30
New

Hourly Weather History & Observations

Time (EDT) Temp. Heat Index Dew Point Humidity Pressure Visibility Wind Dir Wind Speed Gust Speed Precip Events Conditions
12:54 AM 69.1 °F - 68.0 °F 96% 30.07 in 10.0 mi Calm Calm - N/A   Clear
1:54 AM 68.0 °F - 66.9 °F 96% 30.06 in 7.0 mi Calm Calm - N/A   Clear
2:54 AM 66.9 °F - 66.0 °F 97% 30.05 in 5.0 mi Calm Calm - N/A   Clear
3:54 AM 66.9 °F - 66.0 °F 97% 30.04 in 6.0 mi Calm Calm - N/A   Clear
4:54 AM 66.9 °F - 66.0 °F 97% 30.03 in 4.0 mi Calm Calm - N/A   Clear
5:02 AM 66.0 °F - 66.0 °F 100% 30.06 in 2.0 mi Calm Calm - N/A   Clear
5:11 AM 66.0 °F - 66.0 °F 100% 30.06 in 5.0 mi Calm Calm - N/A   Clear
5:22 AM 64.9 °F - 64.9 °F 100% 30.06 in 1.8 mi Calm Calm - N/A   Partly Cloudy
5:34 AM 66.0 °F - 66.0 °F 100% 30.07 in 3.0 mi Calm Calm - N/A   Scattered Clouds
5:42 AM 66.9 °F - 66.0 °F 97% 30.07 in 5.0 mi Calm Calm - N/A   Mostly Cloudy
5:54 AM 66.9 °F - 66.9 °F 100% 30.04 in 5.0 mi Calm Calm - N/A   Overcast
6:03 AM 68.0 °F - 66.9 °F 96% 30.07 in 1.8 mi Calm Calm - N/A   Overcast
6:06 AM 68.0 °F - 66.9 °F 96% 30.07 in 0.8 mi Calm Calm - N/A   Overcast
6:15 AM 68.0 °F - 66.9 °F 96% 30.07 in 0.2 mi Calm Calm - N/A Fog Fog
6:25 AM 68.0 °F - 68.0 °F 100% 30.07 in 0.2 mi Calm Calm - N/A Fog Fog
6:54 AM 69.1 °F - 68.0 °F 96% 30.04 in 0.2 mi Calm Calm - N/A Fog Fog
7:04 AM 69.1 °F - 68.0 °F 96% 30.07 in 0.5 mi North 3.5 mph - N/A Fog Fog
7:14 AM 69.1 °F - 68.0 °F 96% 30.07 in 0.2 mi NNE 3.5 mph - N/A Fog Fog
7:25 AM 69.1 °F - 68.0 °F 96% 30.07 in 0.2 mi NNE 3.5 mph - N/A Fog Fog
7:42 AM 69.8 °F - 69.8 °F 100% 30.08 in 0.2 mi Calm Calm - N/A Fog Fog
7:51 AM 69.8 °F - 69.8 °F 100% 30.08 in 0.8 mi Calm Calm - N/A   Overcast
7:54 AM 69.1 °F - 69.1 °F 100% 30.05 in 1.5 mi Calm Calm - N/A   Overcast
7:58 AM 69.1 °F - 69.1 °F 100% 30.08 in 3.0 mi Variable 3.5 mph - N/A   Overcast
8:54 AM 71.1 °F - 69.1 °F 93% 30.06 in 10.0 mi Calm Calm - N/A   Overcast
9:54 AM 73.0 °F - 69.1 °F 87% 30.06 in 10.0 mi Calm Calm - N/A   Overcast
10:44 AM 77.0 °F - 69.1 °F 76% 30.08 in 10.0 mi Calm Calm - N/A   Mostly Cloudy
10:54 AM 78.1 °F - 70.0 °F 76% 30.05 in 10.0 mi Variable 3.5 mph - N/A   Scattered Clouds
11:54 AM 81.0 °F 84.4 °F 70.0 °F 69% 30.04 in 10.0 mi Calm Calm - N/A   Partly Cloudy
12:54 PM 82.9 °F 86.5 °F 69.1 °F 63% 30.03 in 10.0 mi Calm Calm - N/A   Mostly Cloudy
1:42 PM 84.9 °F 88.2 °F 68.0 °F 57% 30.04 in 10.0 mi SSE 5.8 mph - N/A   Mostly Cloudy
1:54 PM 84.0 °F 87.0 °F 68.0 °F 58% 30.01 in 10.0 mi Variable 5.8 mph - N/A   Mostly Cloudy
2:54 PM 86.0 °F 89.4 °F 68.0 °F 55% 29.99 in 10.0 mi South 4.6 mph - N/A   Mostly Cloudy
3:54 PM 84.9 °F 89.4 °F 70.0 °F 61% 29.97 in 10.0 mi Calm Calm - N/A   Clear
4:54 PM 86.0 °F 88.2 °F 66.0 °F 51% 29.95 in 10.0 mi South 4.6 mph - N/A   Scattered Clouds
5:54 PM 86.0 °F 88.8 °F 66.9 °F 53% 29.94 in 10.0 mi SSE 6.9 mph - N/A   Scattered Clouds
6:54 PM 84.9 °F 87.6 °F 66.9 °F 55% 29.93 in 10.0 mi SSW 4.6 mph - N/A   Clear
7:54 PM 80.1 °F 83.2 °F 70.0 °F 71% 29.94 in 10.0 mi Calm Calm - N/A   Clear
8:54 PM 73.0 °F - 70.0 °F 90% 29.96 in 10.0 mi Calm Calm - N/A   Clear
9:54 PM 71.1 °F - 69.1 °F 93% 29.98 in 10.0 mi Calm Calm - N/A   Clear
10:54 PM 75.0 °F - 69.1 °F 82% 29.97 in 10.0 mi WSW 3.5 mph - N/A   Clear
11:54 PM 70.0 °F - 69.1 °F 97% 29.97 in 10.0 mi Calm Calm - N/A   Clear